TimeEDT,TemperatureF,Dew PointF,Humidity,Sea Level PressureIn,VisibilityMPH,Wind Direction,Wind SpeedMPH,Gust SpeedMPH,PrecipitationIn,Events,Conditions,WindDirDegrees,DateUTC
12:15 AM,62.6,53.1,71,30.01,10.0,SSW,8.1,-,N/A,,Clear,200,2013-04-25 04:15:00
12:35 AM,62.6,53.2,71,30.01,10.0,SSW,8.1,-,N/A,,Clear,200,2013-04-25 04:35:00
12:55 AM,62.1,53.6,74,30.01,10.0,SSW,8.1,-,N/A,,Clear,210,2013-04-25 04:55:00
1:15 AM,62.2,53.6,73,30.01,10.0,SSW,8.1,-,N/A,,Clear,210,2013-04-25 05:15:00
1:35 AM,61.0,53.6,77,30.01,10.0,SW,8.1,-,N/A,,Clear,220,2013-04-25 05:35:00
1:55 AM,61.3,53.6,76,30.02,10.0,SW,8.1,-,N/A,,Clear,230,2013-04-25 05:55:00
2:15 AM,63.5,53.8,71,30.03,10.0,West,5.8,-,N/A,,Mostly Cloudy,260,2013-04-25 06:15:00
2:35 AM,62.2,52.3,70,30.04,10.0,NNW,8.1,-,N/A,,Mostly Cloudy,340,2013-04-25 06:35:00
2:55 AM,60.8,49.5,66,30.04,10.0,NNW,5.8,-,N/A,,Mostly Cloudy,340,2013-04-25 06:55:00
3:15 AM,60.8,47.5,62,30.05,10.0,NNW,5.8,-,N/A,,Overcast,330,2013-04-25 07:15:00
3:35 AM,59.9,48.0,65,30.07,10.0,NW,4.6,-,N/A,,Overcast,320,2013-04-25 07:35:00
3:55 AM,59.5,46.6,62,30.08,10.0,NNW,4.6,-,N/A,,Overcast,330,2013-04-25 07:55:00
4:15 AM,58.6,45.0,60,30.10,10.0,NW,5.8,-,N/A,,Overcast,310,2013-04-25 08:15:00
4:35 AM,56.3,43.7,63,30.11,10.0,NNW,10.4,16.1,N/A,,Scattered Clouds,330,2013-04-25 08:35:00
4:55 AM,55.2,41.0,59,30.12,10.0,NW,6.9,-,N/A,,Clear,310,2013-04-25 08:55:00
5:15 AM,54.5,39.7,57,30.14,10.0,NW,5.8,16.1,N/A,,Clear,310,2013-04-25 09:15:00
5:35 AM,53.6,38.3,56,30.15,10.0,NW,12.7,19.6,N/A,,Unknown,310,2013-04-25 09:35:00
5:55 AM,52.5,37.6,57,30.17,10.0,WNW,5.8,-,N/A,,Scattered Clouds,300,2013-04-25 09:55:00
6:15 AM,52.3,36.3,54,30.19,10.0,NW,4.6,-,N/A,,Mostly Cloudy,320,2013-04-25 10:15:00
6:35 AM,52.0,35.8,54,30.19,10.0,NW,5.8,17.3,N/A,,Overcast,320,2013-04-25 10:35:00
6:55 AM,51.8,36.1,55,30.20,10.0,NW,8.1,-,N/A,,Overcast,310,2013-04-25 10:55:00
7:15 AM,51.4,35.8,55,30.21,10.0,NNW,8.1,-,N/A,,Overcast,330,2013-04-25 11:15:00
7:35 AM,51.4,35.8,55,30.23,10.0,NW,6.9,-,N/A,,Overcast,310,2013-04-25 11:35:00
7:55 AM,50.7,35.6,56,30.23,10.0,NNW,6.9,-,N/A,,Overcast,330,2013-04-25 11:55:00
8:15 AM,50.7,36.3,58,30.24,10.0,NNW,4.6,-,N/A,,Overcast,340,2013-04-25 12:15:00
8:35 AM,51.6,36.7,57,30.23,10.0,North,6.9,-,N/A,,Overcast,350,2013-04-25 12:35:00
8:55 AM,52.2,37.4,57,30.24,10.0,NNW,6.9,-,N/A,,Overcast,330,2013-04-25 12:55:00
9:15 AM,53.1,37.0,55,30.24,10.0,North,9.2,-,N/A,,Overcast,350,2013-04-25 13:15:00
9:35 AM,55.0,38.5,54,30.24,10.0,North,6.9,-,N/A,,Scattered Clouds,350,2013-04-25 13:35:00
9:55 AM,55.9,38.3,52,30.25,10.0,North,8.1,-,N/A,,Clear,360,2013-04-25 13:55:00
10:15 AM,56.7,38.5,51,30.24,10.0,North,10.4,-,N/A,,Clear,360,2013-04-25 14:15:00
10:35 AM,57.6,39.2,50,30.25,10.0,NNE,9.2,-,N/A,,Clear,20,2013-04-25 14:35:00
10:55 AM,59.0,40.1,50,30.25,10.0,NNE,4.6,-,N/A,,Clear,30,2013-04-25 14:55:00
11:15 AM,58.5,39.9,50,30.24,10.0,North,4.6,-,N/A,,Clear,350,2013-04-25 15:15:00
11:35 AM,58.5,40.6,52,30.25,10.0,NNE,5.8,-,N/A,,Clear,30,2013-04-25 15:35:00
11:55 AM,60.3,41.4,50,30.25,10.0,NE,9.2,-,N/A,,Clear,50,2013-04-25 15:55:00
12:35 PM,61.2,41.0,47,30.24,10.0,East,6.9,-,N/A,,Clear,80,2013-04-25 16:35:00
12:55 PM,62.8,42.1,47,30.24,10.0,Calm,Calm,-,N/A,,Clear,0,2013-04-25 16:55:00
1:15 PM,62.1,40.6,45,30.24,10.0,NE,3.5,-,N/A,,Scattered Clouds,50,2013-04-25 17:15:00
1:35 PM,63.3,42.4,46,30.24,10.0,NE,4.6,-,N/A,,Scattered Clouds,50,2013-04-25 17:35:00
1:55 PM,62.8,40.1,43,30.24,10.0,Calm,Calm,-,N/A,,Scattered Clouds,0,2013-04-25 17:55:00
2:15 PM,63.0,39.9,43,30.24,10.0,East,3.5,-,N/A,,Clear,100,2013-04-25 18:15:00
2:35 PM,64.0,39.2,40,30.24,10.0,Calm,Calm,-,N/A,,Clear,0,2013-04-25 18:35:00
2:55 PM,64.6,40.5,41,30.24,10.0,Calm,Calm,-,N/A,,Clear,0,2013-04-25 18:55:00
3:15 PM,65.1,40.3,40,30.22,10.0,East,4.6,-,N/A,,Clear,80,2013-04-25 19:15:00
3:35 PM,65.5,39.0,38,30.22,10.0,Calm,Calm,-,N/A,,Clear,0,2013-04-25 19:35:00
3:55 PM,66.2,39.4,37,30.22,10.0,NNE,3.5,-,N/A,,Scattered Clouds,30,2013-04-25 19:55:00
4:15 PM,66.6,38.7,36,30.22,10.0,East,6.9,-,N/A,,Scattered Clouds,80,2013-04-25 20:15:00
4:35 PM,66.7,37.9,35,30.21,10.0,Calm,Calm,-,N/A,,Clear,0,2013-04-25 20:35:00
4:55 PM,66.6,37.4,34,30.21,10.0,Calm,Calm,-,N/A,,Clear,0,2013-04-25 20:55:00
5:15 PM,66.4,36.3,33,30.20,10.0,Calm,Calm,-,N/A,,Clear,0,2013-04-25 21:15:00
5:35 PM,66.9,36.9,33,30.20,10.0,Calm,Calm,-,N/A,,Clear,0,2013-04-25 21:35:00
5:55 PM,66.7,36.9,33,30.21,10.0,Calm,Calm,-,N/A,,Clear,0,2013-04-25 21:55:00
6:15 PM,66.6,37.0,34,30.20,10.0,Calm,Calm,-,N/A,,Clear,0,2013-04-25 22:15:00
6:35 PM,66.2,35.1,32,30.21,10.0,Calm,Calm,-,N/A,,Clear,0,2013-04-25 22:35:00
6:55 PM,65.1,38.5,37,30.21,10.0,North,3.5,-,N/A,,Clear,10,2013-04-25 22:55:00
7:15 PM,63.1,43.2,48,30.21,10.0,NE,3.5,-,N/A,,Clear,50,2013-04-25 23:15:00
7:35 PM,62.2,43.2,50,30.22,10.0,Calm,Calm,-,N/A,,Clear,0,2013-04-25 23:35:00
7:55 PM,60.8,43.2,52,30.23,10.0,Calm,Calm,-,N/A,,Clear,0,2013-04-25 23:55:00
8:15 PM,59.0,43.9,57,30.23,10.0,Calm,Calm,-,N/A,,Clear,0,2013-04-26 00:15:00
8:35 PM,56.5,44.8,65,30.24,10.0,Calm,Calm,-,N/A,,Clear,0,2013-04-26 00:35:00
8:55 PM,56.7,44.6,64,30.24,10.0,Calm,Calm,-,N/A,,Clear,0,2013-04-26 00:55:00
9:15 PM,55.8,45.0,67,30.25,10.0,Calm,Calm,-,N/A,,Clear,0,2013-04-26 01:15:00
9:35 PM,54.0,45.3,73,30.27,10.0,Calm,Calm,-,N/A,,Clear,0,2013-04-26 01:35:00
9:55 PM,53.8,44.8,72,30.27,10.0,Calm,Calm,-,N/A,,Clear,0,2013-04-26 01:55:00
10:15 PM,52.9,44.2,72,30.27,10.0,Calm,Calm,-,N/A,,Clear,0,2013-04-26 02:15:00
10:35 PM,51.6,43.7,74,30.28,10.0,Calm,Calm,-,N/A,,Clear,0,2013-04-26 02:35:00
10:55 PM,51.3,42.8,73,30.28,10.0,Calm,Calm,-,N/A,,Clear,0,2013-04-26 02:55:00
11:15 PM,51.3,44.2,77,30.28,10.0,Calm,Calm,-,N/A,,Clear,0,2013-04-26 03:15:00
11:35 PM,50.0,43.9,79,30.29,10.0,Calm,Calm,-,N/A,,Clear,0,2013-04-26 03:35:00
11:55 PM,52.3,43.2,71,30.28,10.0,SE,4.6,-,N/A,,Clear,140,2013-04-26 03:55:00